[[{"header":{"parameterUnit":"m.s-1","parameterCategory":1,"la1":30.2991,"la2":30.254,"lo1":-89.0895,"lo2":-89.0444,"dy":0.0017,"dx":0.0017,"nx":28,"ny":28,"refTime":"2023-10-11T21:00:00:Z","depth":0,"parameterNumber":2,"parameterNumberName":"U-component_of_WINDS"},"data":[0,0,0,0,0,0,0,0,0,0,0,0,0,0,0,0,0,0,0,0,0,0,0,0,0,0,0,0,0,0,0,0,0,0,0,0,0,0,0,0,0,0,0,0,0,0,0,0,0,0,0,0,0,0,0,0,0,0,0.2271,0.227,0,0.2211,0.2211,0.221,0.2196,0.2196,0.2197,0.2197,0.2134,0.2132,0.213,0,0,0,0,0,0,0,0,0,0,0,0,0,0.2371,0.237,0.2271,0.227,0.227,0.2211,0.2211,0.221,0.2196,0.2196,0.2197,0.2197,0.2135,0.2132,0.213,0,0,0,0,0,0,0,0,0,0,0,0,0,0.2321,0.2369,0.2271,0.2256,0.2254,0.2212,0.2211,0.221,0.2196,0.2196,0.2197,0.2197,0.2136,0.2133,0.213,0.2098,0,0,0.212,0.2119,0,0,0,0,0,0,0,0,0.2324,0.2318,0.2259,0.2257,0.2254,0.2212,0.2223,0.2172,0.2195,0.2218,0.2197,0.2198,0.2159,0.2154,0.2142,0.2095,0.2093,0.212,0.2118,0.2117,0.2116,0,0,0,0,0,0,0,0.2328,0.232,0.2247,0.2258,0.2255,0.2251,0.2245,0.2213,0.2186,0.2216,0.2214,0.2208,0.2158,0.2145,0.214,0.2092,0.212,0.2117,0.2115,0.2114,0.2017,0.2016,0,0,0,0,0,0,0.2334,0.2323,0.2249,0.2246,0.2292,0.2249,0.2242,0.2225,0.2186,0.2181,0.2207,0.2207,0.215,0.2144,0.2138,0.2098,0.2117,0.2114,0.2112,0.2018,0.2017,0.2016,0,0,0,0,0,0,0.2336,0.2328,0.2252,0.2284,0.2274,0.2246,0.2228,0.2223,0.221,0.218,0.2175,0.2199,0.215,0.2142,0.2108,0.2096,0.2112,0.211,0.2018,0.2017,0.2016,0.202,0,0,0,0,0,0,0.2339,0.2329,0.2317,0.2284,0.2272,0.2224,0.2227,0.2222,0.2205,0.2204,0.217,0.2165,0.215,0.2113,0.2105,0.2092,0.2107,0.2019,0.2018,0.2017,0.2021,0.2019,0.2017,0,0,0,0,0,0.2343,0.232,0.2316,0.2307,0.2257,0.2223,0.2216,0.22,0.2204,0.2191,0.2172,0.2166,0.2099,0.211,0.2101,0.2087,0.202,0.2018,0.2017,0.2021,0.2019,0.2017,0,0,0,0,0,0,0.2351,0.2315,0.2311,0.2276,0.2253,0.2221,0.2204,0.2198,0.2172,0.2173,0.2153,0.2145,0.2113,0.2096,0.2109,0.2054,0.206,0.2056,0.2066,0.2064,0.2062,0.2066,0.2105,0,0,0,0,0,0.2349,0.2325,0.2294,0.2267,0.2255,0.2232,0.2217,0.2206,0.218,0.217,0.2148,0.2124,0.2097,0.208,0.2053,0.2019,0.2011,0.2004,0.2003,0.2002,0.1999,0.1979,0.1975,0.201,0.201,0.201,0,0,0.2344,0.2322,0.2307,0.2268,0.2249,0.2223,0.2224,0.2197,0.2178,0.2166,0.2133,0.2116,0.2087,0.2053,0.2036,0.2038,0.1987,0.2,0.1999,0.1996,0.1977,0.1973,0.197,0.2009,0.2009,0.201,0,0,0.2322,0.2303,0.2278,0.2259,0.2229,0.2214,0.2208,0.2177,0.2165,0.2132,0.2122,0.2099,0.2054,0.2033,0.2017,0.1988,0.1982,0.198,0.1972,0.1953,0.195,0.1947,0.1937,0.1933,0.1978,0.1978,0.1978,0,0.232,0.2282,0.2266,0.2239,0.2222,0.2211,0.2185,0.2167,0.2131,0.2119,0.2122,0.2064,0.2044,0.2005,0.1998,0.1985,0.1977,0.1984,0.1952,0.1949,0.1946,0.1936,0.1932,0.1978,0.1978,0.1978,0.1978,0,0.228,0.2254,0.2237,0.2203,0.2184,0.2158,0.2137,0.212,0.2111,0.2096,0.2061,0.2037,0.2005,0.1996,0.1986,0.1955,0.1957,0.1956,0.196,0.1943,0.1933,0.1929,0.1978,0.1978,0.1978,0.1978,0,0,0.2261,0.2218,0.2212,0.2196,0.2164,0.2143,0.2117,0.2086,0.2072,0.2047,0.2024,0.1986,0.1985,0.1967,0.1956,0.1939,0.1917,0.194,0.1939,0.1936,0.188,0.188,0.1876,0.1913,0.1912,0.1912,0.1882,0,0.2234,0.2187,0.2172,0.2132,0.2108,0.2097,0.2074,0.2051,0.2036,0.2013,0.1996,0.1969,0.1971,0.1959,0.1942,0.1923,0.1905,0.1925,0.1891,0.189,0.1898,0.1871,0.1871,0.1844,0.1878,0.1878,0.1877,0,0.2197,0.2172,0.213,0.2101,0.209,0.207,0.2041,0.2019,0.1993,0.1983,0.1963,0.1953,0.1924,0.1932,0.1892,0.1906,0.1891,0.188,0.1878,0.1873,0.1882,0.1864,0.1835,0.1831,0.1871,0.1871,0.1872,0,0.2186,0.2143,0.2112,0.2099,0.2064,0.205,0.2034,0.2009,0.1992,0.1967,0.1955,0.1927,0.1911,0.1889,0.1872,0.1879,0.1834,0.1839,0.1824,0.1824,0.1814,0.1815,0.1781,0.1806,0.1806,0.1806,0.1806,0,0.2158,0.2133,0.2107,0.2088,0.2059,0.2042,0.2014,0.1998,0.1975,0.1953,0.1942,0.1921,0.19,0.1876,0.1862,0.1831,0.1824,0.1815,0.1812,0.1815,0.1817,0.1805,0.1806,0.1805,0.1805,0.1806,0.1806,0,0.2141,0.2123,0.2088,0.2058,0.205,0.203,0.2004,0.1985,0.197,0.1941,0.1934,0.1909,0.1881,0.1862,0.1825,0.1816,0.1782,0.1779,0.1791,0.1789,0.1774,0.1776,0.1731,0.1724,0.1754,0.1754,0.1754,0,0.2124,0.2104,0.2072,0.2056,0.2041,0.2016,0.1998,0.1981,0.1963,0.1932,0.1917,0.1888,0.1863,0.1818,0.1797,0.1769,0.1765,0.1751,0.176,0.1765,0.1763,0.1765,0.1762,0.1749,0.1749,0.1749,0.1749,0,0.2095,0.2087,0.2062,0.2035,0.2014,0.1992,0.1969,0.1957,0.1935,0.1916,0.1887,0.1868,0.1831,0.1801,0.1771,0.1755,0.1748,0.1746,0.1741,0.1744,0.1752,0.1747,0.1786,0.1747,0.1747,0.1747,0.1747,0.1747,0.2076,0.2058,0.2033,0.2006,0.1987,0.1966,0.1947,0.193,0.1905,0.1874,0.1865,0.1834,0.1809,0.1768,0.1751,0.1727,0.1728,0.1721,0.1719,0.1717,0.1717,0.1756,0.1721,0.1721,0.1721,0.1721,0.1721,0,0.2046,0.203,0.2005,0.1974,0.1953,0.1949,0.1923,0.1906,0.1879,0.1856,0.1833,0.1799,0.1771,0.1748,0.1719,0.1704,0.17,0.1697,0.1697,0.1694,0.1717,0.1724,0.17,0.17,0.17,0.17,0.17,0.17,0.2028,0.1997,0.1986,0.1946,0.1929,0.19,0.1885,0.1866,0.1848,0.1811,0.1787,0.1773,0.175,0.1719,0.1693,0.1687,0.1676,0.1674,0.1667,0.169,0.1692,0.1694,0.1701,0.1672,0.1672,0.1645,0.1645,0.1645]},{"header":{"parameterUnit":"m.s-1","parameterCategory":1,"la1":30.2991,"la2":30.254,"lo1":-89.0895,"lo2":-89.0444,"dy":0.0017,"dx":0.0017,"nx":28,"ny":28,"refTime":"2023-10-11T21:00:00:Z","depth":0,"parameterNumber":3,"parameterNumberName":"V-component_of_WINDS"},"data":[0,0,0,0,0,0,0,0,0,0,0,0,0,0,0,0,0,0,0,0,0,0,0,0,0,0,0,0,0,0,0,0,0,0,0,0,0,0,0,0,0,0,0,0,0,0,0,0,0,0,0,0,0,0,0,0,0,0,-6.0762,-6.0763,0,-6.0882,-6.0883,-6.0885,-6.0826,-6.0823,-6.082,-6.0817,-6.0934,-6.094,-6.0946,0,0,0,0,0,0,0,0,0,0,0,0,0,-6.0477,-6.0483,-6.0762,-6.0763,-6.0765,-6.0882,-6.0883,-6.0885,-6.0826,-6.0823,-6.0819,-6.0815,-6.0932,-6.0939,-6.0946,0,0,0,0,0,0,0,0,0,0,0,0,0,-6.0599,-6.0485,-6.0762,-6.075,-6.075,-6.0881,-6.0883,-6.0885,-6.0827,-6.0823,-6.0818,-6.0814,-6.093,-6.0938,-6.0947,-6.1095,0,0,-6.0975,-6.0978,0,0,0,0,0,0,0,0,-6.0592,-6.061,-6.075,-6.0751,-6.0751,-6.0834,-6.0826,-6.0955,-6.0828,-6.0798,-6.0817,-6.0811,-6.0904,-6.0915,-6.0947,-6.11,-6.1105,-6.0975,-6.0981,-6.0985,-6.0987,0,0,0,0,0,0,0,-6.0584,-6.0604,-6.0809,-6.0752,-6.0753,-6.0737,-6.0749,-6.085,-6.0875,-6.08,-6.0796,-6.0812,-6.0903,-6.0939,-6.095,-6.1107,-6.0975,-6.0983,-6.0989,-6.0992,-6.1388,-6.1393,0,0,0,0,0,0,-6.0577,-6.0598,-6.0805,-6.0813,-6.0659,-6.0746,-6.076,-6.0812,-6.0874,-6.0879,-6.0815,-6.0808,-6.0926,-6.0939,-6.0954,-6.1131,-6.0985,-6.0993,-6.0998,-6.1383,-6.1389,-6.1394,0,0,0,0,0,0,-6.0571,-6.0596,-6.08,-6.0704,-6.0729,-6.0756,-6.0815,-6.0817,-6.0852,-6.0886,-6.0889,-6.0847,-6.0923,-6.0941,-6.1061,-6.1134,-6.0997,-6.1005,-6.1377,-6.1384,-6.1392,-6.1487,0,0,0,0,0,0,-6.0563,-6.0594,-6.0652,-6.0706,-6.0735,-6.0908,-6.082,-6.0823,-6.0869,-6.0861,-6.0916,-6.0921,-6.092,-6.1048,-6.107,-6.1144,-6.1012,-6.137,-6.138,-6.1389,-6.1478,-6.1497,-6.1514,0,0,0,0,0,-6.0553,-6.0673,-6.0655,-6.068,-6.0807,-6.0912,-6.0928,-6.0927,-6.0875,-6.0932,-6.0954,-6.0919,-6.1123,-6.106,-6.1085,-6.1163,-6.1365,-6.1377,-6.1388,-6.147,-6.1494,-6.1514,0,0,0,0,0,0,-6.0624,-6.0679,-6.0661,-6.0802,-6.0853,-6.0902,-6.0974,-6.0952,-6.1017,-6.1007,-6.1,-6.1013,-6.1138,-6.1162,-6.1092,-6.1309,-6.1236,-6.1253,-6.1289,-6.1312,-6.133,-6.1322,-6.102,0,0,0,0,0,-6.0657,-6.0739,-6.0782,-6.0902,-6.0929,-6.0948,-6.0993,-6.0988,-6.1039,-6.106,-6.109,-6.114,-6.1215,-6.1265,-6.1336,-6.1481,-6.1492,-6.1547,-6.1565,-6.158,-6.1594,-6.1673,-6.1698,-6.1432,-6.1432,-6.1432,0,0,-6.0724,-6.0764,-6.0816,-6.0917,-6.0956,-6.104,-6.0966,-6.1057,-6.1119,-6.1073,-6.1189,-6.1213,-6.1268,-6.1402,-6.1462,-6.1426,-6.167,-6.1594,-6.1606,-6.1613,-6.1688,-6.1713,-6.1735,-6.144,-6.1439,-6.1437,0,0,-6.0889,-6.0928,-6.1033,-6.1074,-6.1135,-6.1147,-6.1172,-6.1225,-6.124,-6.1357,-6.1324,-6.1396,-6.1526,-6.1567,-6.1605,-6.1787,-6.1758,-6.181,-6.1905,-6.1982,-6.2003,-6.2022,-6.2087,-6.211,-6.1825,-6.1825,-6.1825,0,-6.0964,-6.1091,-6.1089,-6.1185,-6.123,-6.1194,-6.13,-6.1339,-6.1419,-6.1451,-6.1409,-6.1572,-6.1607,-6.175,-6.1794,-6.1826,-6.1854,-6.1804,-6.2001,-6.2019,-6.2036,-6.2099,-6.2123,-6.1831,-6.183,-6.183,-6.1829,0,-6.1181,-6.127,-6.1347,-6.1428,-6.1481,-6.1581,-6.1593,-6.1647,-6.1637,-6.1653,-6.1772,-6.1812,-6.1891,-6.1924,-6.1914,-6.2066,-6.2042,-6.2001,-6.1927,-6.2068,-6.2126,-6.215,-6.1839,-6.1837,-6.1836,-6.1834,0,0,-6.1394,-6.1474,-6.1503,-6.1539,-6.1604,-6.1672,-6.1769,-6.1848,-6.1895,-6.1952,-6.2033,-6.2144,-6.2107,-6.215,-6.2144,-6.2212,-6.2354,-6.2162,-6.2163,-6.2197,-6.2524,-6.2555,-6.2582,-6.2335,-6.2339,-6.2343,-6.2519,0,-6.1565,-6.1739,-6.174,-6.1899,-6.198,-6.1948,-6.2033,-6.2081,-6.2098,-6.2169,-6.2186,-6.2266,-6.2211,-6.2237,-6.2302,-6.2323,-6.2419,-6.231,-6.2409,-6.2413,-6.2397,-6.2613,-6.2645,-6.281,-6.2542,-6.2546,-6.2548,0,-6.1787,-6.1854,-6.2022,-6.2076,-6.211,-6.2187,-6.226,-6.2328,-6.2381,-6.2389,-6.2438,-6.2422,-6.252,-6.2443,-6.2577,-6.2503,-6.2544,-6.256,-6.2566,-6.2576,-6.249,-6.2628,-6.2862,-6.2887,-6.2584,-6.2581,-6.2579,0,-6.1927,-6.2058,-6.2176,-6.2208,-6.2273,-6.2328,-6.2358,-6.2407,-6.2455,-6.2518,-6.2549,-6.2622,-6.2662,-6.2718,-6.2721,-6.2665,-6.2857,-6.278,-6.2866,-6.2866,-6.2908,-6.2905,-6.3152,-6.2933,-6.2933,-6.2932,-6.2932,0,-6.2118,-6.2222,-6.2239,-6.2312,-6.2427,-6.2427,-6.2541,-6.2565,-6.2609,-6.2685,-6.266,-6.2731,-6.2732,-6.2804,-6.2807,-6.2918,-6.2936,-6.2944,-6.2944,-6.2947,-6.2946,-6.2973,-6.2962,-6.2939,-6.2937,-6.2936,-6.2935,0,-6.2293,-6.2309,-6.2436,-6.2488,-6.2504,-6.2587,-6.2631,-6.2699,-6.2714,-6.281,-6.2832,-6.2856,-6.2939,-6.2949,-6.3045,-6.3047,-6.3182,-6.3169,-6.3164,-6.3163,-6.3247,-6.324,-6.3521,-6.3558,-6.3315,-6.3317,-6.3319,0,-6.2414,-6.2494,-6.2556,-6.2606,-6.2639,-6.2719,-6.2769,-6.2771,-6.2823,-6.2891,-6.2951,-6.3033,-6.3098,-6.3233,-6.3257,-6.3331,-6.332,-6.3413,-6.3331,-6.3331,-6.3322,-6.3317,-6.3325,-6.3429,-6.3432,-6.3434,-6.3436,0,-6.2627,-6.2632,-6.2705,-6.2782,-6.2842,-6.2902,-6.2958,-6.3,-6.3009,-6.3068,-6.3155,-6.3206,-6.3306,-6.3387,-6.346,-6.3488,-6.3464,-6.3462,-6.3486,-6.349,-6.3484,-6.3489,-6.3209,-6.3455,-6.3453,-6.3452,-6.3451,-6.345,-6.278,-6.2849,-6.2905,-6.2987,-6.303,-6.3083,-6.3151,-6.3175,-6.3248,-6.3331,-6.3327,-6.3423,-6.3474,-6.357,-6.3603,-6.3677,-6.3645,-6.3679,-6.3688,-6.3697,-6.3706,-6.3473,-6.369,-6.3689,-6.3688,-6.3688,-6.3688,0,-6.2992,-6.3026,-6.3102,-6.3183,-6.3248,-6.3221,-6.3282,-6.3338,-6.3423,-6.3473,-6.3539,-6.3638,-6.3717,-6.3748,-6.3825,-6.3878,-6.3869,-6.3898,-6.3894,-6.3901,-6.3729,-6.3701,-6.3904,-6.3904,-6.3904,-6.3904,-6.3904,-6.3904,-6.311,-6.3227,-6.3238,-6.3376,-6.3409,-6.3504,-6.3541,-6.359,-6.363,-6.3743,-6.381,-6.383,-6.3873,-6.3952,-6.4023,-6.403,-6.4059,-6.4094,-6.4096,-6.3935,-6.3913,-6.3892,-6.3866,-6.41,-6.41,-6.4262,-6.4263,-6.4264]}]]